When you browse on this site, cookies collect data to enhance your experience and personalize the content and advertising you see.
Visit our Privacy Policy to learn more. By continuing to use the site, you agree to this use of cookies and data.
  • In Czech Republic
  • List of Countries
  • For 7 days
  • Water Temperature
  • Weather Map
  • Weather Widgets
  • user-avatar
    Login

    Hourly Weather Harbala 1-ya

    Today, 26 May, Tuesday

    Time Temperature Precipitation Wind Pressure Humidity
    00:00 +14°C° 0 mm 2 mps 738 mmHg 59%
    01:00 +13°C° 0 mm 2 mps 737 mmHg 62%
    02:00 +13°C° 0 mm 2 mps 737 mmHg 65%
    03:00 +11°C° 0 mm 3 mps 737 mmHg 70%
    04:00 +12°C° 0 mm 3 mps 736 mmHg 67%
    05:00 +14°C° 0 mm 3 mps 736 mmHg 63%
    06:00 +16°C° 0 mm 3 mps 736 mmHg 60%
    07:00 +19°C° 0 mm 3 mps 736 mmHg 53%
    08:00 +21°C° 0 mm 4 mps 736 mmHg 47%
    09:00 +23°C° 0 mm 4 mps 736 mmHg 40%
    10:00 +25°C° 0 mm 4 mps 735 mmHg 36%
    11:00 +26°C° 0 mm 4 mps 735 mmHg 33%
    12:00 +27°C° 0 mm 4 mps 734 mmHg 30%
    13:00 +27°C° 0 mm 4 mps 734 mmHg 29%
    14:00 +28°C° 0 mm 4 mps 733 mmHg 28%
    15:00 +28°C° 0 mm 3 mps 733 mmHg 27%
    16:00 +28°C° 0 mm 3 mps 732 mmHg 28%
    17:00 +28°C° 0 mm 2 mps 732 mmHg 30%
    18:00 +27°C° 0 mm 2 mps 732 mmHg 31%
    19:00 +25°C° 0 mm 2 mps 731 mmHg 36%
    20:00 +23°C° 0 mm 2 mps 731 mmHg 41%
    21:00 +20°C° 0 mm 1 mps 731 mmHg 46%
    22:00 +19°C° 0 mm 1 mps 730 mmHg 48%
    23:00 +17°C° 0 mm 2 mps 730 mmHg 51%

    Tomorrow, 27 May, Wednesday

    Time Temperature Precipitation Wind Pressure Humidity
    00:00 +16°C° 0 mm 2 mps 730 mmHg 53%
    01:00 +15°C° 0 mm 2 mps 730 mmHg 56%
    02:00 +15°C° 0 mm 2 mps 729 mmHg 60%
    03:00 +14°C° 0 mm 2 mps 729 mmHg 63%
    04:00 +16°C° 0 mm 1 mps 729 mmHg 62%
    05:00 +18°C° 0 mm 1 mps 729 mmHg 62%
    06:00 +19°C° 0 mm 1 mps 729 mmHg 61%
    07:00 +22°C° 0 mm 1 mps 729 mmHg 55%
    08:00 +24°C° 0 mm 1 mps 729 mmHg 49%
    09:00 +26°C° 0 mm 2 mps 728 mmHg 43%
    10:00 +27°C° 0 mm 2 mps 728 mmHg 38%
    11:00 +28°C° 0 mm 3 mps 728 mmHg 33%
    12:00 +29°C° 0 mm 3 mps 727 mmHg 28%
    13:00 +29°C° 0 mm 3 mps 727 mmHg 29%
    14:00 +29°C° 0 mm 3 mps 727 mmHg 30%
    15:00 +28°C° 0 mm 3 mps 726 mmHg 31%
    16:00 +28°C° 0 mm 3 mps 726 mmHg 32%
    17:00 +28°C° 0 mm 2 mps 726 mmHg 33%
    18:00 +27°C° 0 mm 2 mps 726 mmHg 35%
    19:00 +25°C° 0.1 mm 2 mps 726 mmHg 42%
    20:00 +23°C° 0.1 mm 1 mps 726 mmHg 49%
    21:00 +21°C° 0.1 mm 1 mps 726 mmHg 57%
    22:00 +19°C° 0.1 mm 1 mps 726 mmHg 62%
    23:00 +18°C° 0.1 mm 1 mps 726 mmHg 68%

    Day after tomorrow, 28 May, Thursday

    Time Temperature Precipitation Wind Pressure Humidity
    00:00 +16°C° 0.1 mm 2 mps 726 mmHg 73%
    01:00 +16°C° 0 mm 2 mps 725 mmHg 74%
    02:00 +16°C° 0 mm 3 mps 725 mmHg 74%
    03:00 +16°C° 0 mm 3 mps 724 mmHg 75%
    04:00 +16°C° 0 mm 3 mps 725 mmHg 71%
    05:00 +17°C° 0 mm 4 mps 725 mmHg 66%
    06:00 +18°C° 0 mm 4 mps 725 mmHg 62%
    07:00 +19°C° 0 mm 3 mps 725 mmHg 58%
    08:00 +20°C° 0 mm 3 mps 725 mmHg 54%
    09:00 +21°C° 0 mm 2 mps 725 mmHg 50%
    10:00 +21°C° 0.1 mm 3 mps 725 mmHg 54%
    11:00 +20°C° 0.1 mm 3 mps 725 mmHg 58%
    12:00 +19°C° 0.1 mm 3 mps 725 mmHg 62%
    13:00 +18°C° 0 mm 4 mps 725 mmHg 62%
    14:00 +17°C° 0 mm 4 mps 726 mmHg 62%
    15:00 +15°C° 0 mm 4 mps 726 mmHg 61%
    16:00 +15°C° 0 mm 5 mps 726 mmHg 61%
    17:00 +15°C° 0 mm 5 mps 727 mmHg 60%
    18:00 +15°C° 0 mm 5 mps 727 mmHg 60%
    19:00 +14°C° 0.1 mm 5 mps 727 mmHg 63%
    20:00 +13°C° 0.1 mm 4 mps 728 mmHg 66%
    21:00 +12°C° 0.1 mm 4 mps 728 mmHg 69%
    22:00 +9°C° 0 mm 5 mps 729 mmHg 70%
    23:00 +8°C° 0 mm 5 mps 729 mmHg 72%

    29 May, Friday

    Time Temperature Precipitation Wind Pressure Humidity
    00:00 +7°C° 0 mm 6 mps 730 mmHg 74%
    01:00 +5°C° 0 mm 6 mps 731 mmHg 74%
    02:00 +4°C° 0 mm 6 mps 731 mmHg 74%
    03:00 +3°C° 0 mm 5 mps 732 mmHg 74%
    04:00 +3°C° 0 mm 6 mps 733 mmHg 72%
    05:00 +3°C° 0 mm 6 mps 733 mmHg 71%
    06:00 +2°C° 0 mm 6 mps 734 mmHg 69%
    07:00 +3°C° 0.1 mm 6 mps 734 mmHg 65%
    08:00 +4°C° 0.1 mm 6 mps 734 mmHg 61%
    09:00 +4°C° 0.1 mm 6 mps 735 mmHg 57%
    10:00 +5°C° 0.2 mm 6 mps 735 mmHg 57%
    11:00 +5°C° 0.2 mm 7 mps 735 mmHg 57%
    12:00 +5°C° 0.2 mm 7 mps 735 mmHg 58%
    13:00 +5°C° 0.1 mm 7 mps 735 mmHg 57%
    14:00 +5°C° 0.1 mm 7 mps 735 mmHg 55%
    15:00 +5°C° 0.1 mm 7 mps 735 mmHg 54%
    16:00 +5°C° 0 mm 6 mps 735 mmHg 53%
    17:00 +5°C° 0 mm 6 mps 736 mmHg 52%
    18:00 +5°C° 0 mm 6 mps 736 mmHg 51%
    19:00 +5°C° 0 mm 5 mps 736 mmHg 51%
    20:00 +5°C° 0 mm 4 mps 736 mmHg 52%
    21:00 +4°C° 0 mm 3 mps 737 mmHg 53%
    22:00 +4°C° 0 mm 3 mps 737 mmHg 56%
    23:00 +3°C° 0 mm 3 mps 737 mmHg 60%

    30 May, Saturday

    Time Temperature Precipitation Wind Pressure Humidity
    00:00 +2°C° 0 mm 3 mps 737 mmHg 64%
    01:00 +1°C° 0 mm 4 mps 737 mmHg 65%
    02:00 0°C° 0 mm 4 mps 737 mmHg 66%
    03:00 0°C° 0 mm 4 mps 738 mmHg 68%
    04:00 +1°C° 0 mm 4 mps 738 mmHg 62%
    05:00 +2°C° 0 mm 5 mps 738 mmHg 56%
    06:00 +4°C° 0 mm 6 mps 738 mmHg 50%
    07:00 +5°C° 0 mm 6 mps 738 mmHg 46%
    08:00 +7°C° 0 mm 6 mps 738 mmHg 42%
    09:00 +9°C° 0 mm 6 mps 739 mmHg 38%
    10:00 +9°C° 0 mm 5 mps 738 mmHg 36%
    11:00 +10°C° 0 mm 5 mps 738 mmHg 33%
    12:00 +12°C° 0 mm 5 mps 738 mmHg 31%
    13:00 +13°C° 0 mm 5 mps 738 mmHg 30%
    14:00 +13°C° 0 mm 5 mps 738 mmHg 29%
    15:00 +14°C° 0 mm 5 mps 738 mmHg 29%
    16:00 +13°C° 0 mm 4 mps 738 mmHg 30%
    17:00 +13°C° 0 mm 4 mps 738 mmHg 31%
    18:00 +13°C° 0 mm 4 mps 738 mmHg 32%
    19:00 +11°C° 0 mm 3 mps 738 mmHg 39%
    20:00 +9°C° 0 mm 2 mps 739 mmHg 46%
    21:00 +8°C° 0 mm 1 mps 739 mmHg 52%
    22:00 +7°C° 0 mm 1 mps 739 mmHg 56%
    23:00 +6°C° 0 mm 1 mps 739 mmHg 61%

    31 May, Sunday

    Time Temperature Precipitation Wind Pressure Humidity
    00:00 +5°C° 0 mm 1 mps 739 mmHg 65%
    01:00 +5°C° 0 mm 1 mps 739 mmHg 68%
    02:00 +4°C° 0 mm 1 mps 739 mmHg 71%
    03:00 +3°C° 0 mm 0 mps 739 mmHg 75%
    04:00 +6°C° 0 mm 1 mps 739 mmHg 70%
    05:00 +7°C° 0 mm 1 mps 739 mmHg 64%
    06:00 +9°C° 0 mm 1 mps 739 mmHg 59%
    07:00 +11°C° 0 mm 1 mps 739 mmHg 53%
    08:00 +13°C° 0 mm 1 mps 739 mmHg 48%
    09:00 +14°C° 0 mm 1 mps 739 mmHg 43%
    10:00 +15°C° 0 mm 1 mps 739 mmHg 41%
    11:00 +16°C° 0 mm 1 mps 739 mmHg 38%
    12:00 +16°C° 0 mm 1 mps 738 mmHg 36%
    13:00 +16°C° 0.2 mm 1 mps 738 mmHg 40%
    14:00 +16°C° 0.2 mm 1 mps 738 mmHg 43%
    15:00 +16°C° 0.2 mm 1 mps 738 mmHg 47%
    16:00 +15°C° 0.4 mm 1 mps 738 mmHg 51%
    17:00 +15°C° 0.4 mm 1 mps 738 mmHg 55%
    18:00 +14°C° 0.4 mm 1 mps 738 mmHg 59%
    19:00 +13°C° 0.1 mm 1 mps 738 mmHg 66%
    20:00 +11°C° 0.1 mm 1 mps 738 mmHg 73%
    21:00 +9°C° 0.1 mm 1 mps 738 mmHg 79%
    22:00 +8°C° 0 mm 1 mps 738 mmHg 83%
    23:00 +8°C° 0 mm 1 mps 738 mmHg 86%
    Show more